Regional Weather Roundup
Issued by NWS

Home | Current Version | Previous Version | Text Only | Print | Product List | Glossary Off
Versions: 1 2 3 4 5 6 7 8 9 10 11 12 13 14 15 16 17 18 19 20 21 22 23 24 25 26 27

000
ASUS45 KBOU 310807
RWRCO

WEATHER ROUNDUP FOR COLORADO
NATIONAL WEATHER SERVICE DENVER/BOULDER CO
200 AM MDT FRI OCT 31 2014

NOTE: "FAIR" INDICATES FEW OR NO CLOUDS BELOW 12000 FEET WITH NO
SIGNIFICANT WEATHER AND/OR OBSTRUCTIONS TO VISIBILITY.

COZ001>005-013-030-031-310900-
...NORTHWEST COLORADO...

CITY           SKY/WX    TMP DP  RH WIND       PRES   REMARKS
CRAIG          PTCLDY    27  22  81 CALM      30.27F
HAYDEN         CLEAR     37  25  60 E12       30.28F
MEEKER         PTCLDY    33  27  78 E3        30.27F
MOUNT WERNER   NOT AVBL
STEAMBOAT SPGS CLEAR     32  26  78 CALM      30.32F
WALDEN         PTCLDY    28  23  80 E5        30.37F WCI  23
$$

COZ006>008-011-310900-
...WEST CENTRAL VALLEYS...

CITY           SKY/WX    TMP DP  RH WIND       PRES   REMARKS
GRAND JUNCTION PTCLDY    44  26  49 SE13      30.20S
MONTROSE       PTCLDY    36  25  64 S9        30.27F
EAGLE          CLEAR     30  25  80 CALM      30.37F
RIFLE          CLEAR     36  25  64 SE5       30.26S
DELTA          PTCLDY    40  25  54 NE5       30.25S
NUCLA          PTCLDY    43  21  42 SE10      30.31S
$$

COZ017>023-064>068-310900-
...SOUTHWEST COLORADO...

CITY           SKY/WX    TMP DP  RH WIND       PRES   REMARKS
DURANGO        PTCLDY    37  25  61 CALM      30.35S
CORTEZ         CLEAR     33  23  66 E6        30.27F WCI  28
PAGOSA SPRINGS PTCLDY    36  21  54 CALM      30.41F
TELLURIDE      PTCLDY    49  15  25 NE3       30.43F
WOLF CREEK PAS NOT AVBL
$$

COZ009-010-012-014-032>034-037-058>063-310900-
...CENTRAL COLORADO...

CITY           SKY/WX    TMP DP  RH WIND       PRES   REMARKS
ASPEN          PTCLDY    30  21  69 CALM      30.34F
BUENA VISTA    CLEAR     27  19  74 W5        30.47S WCI  21
COPPER MTN     CLEAR     37   3  23 S20       30.54F
BERTHOUD PASS  FAIR      30  27  86 W13       30.56F WCI  20
COTTONWOOD PAS CLEAR     37  19  48 CALM      30.50F
GUNNISON       CLEAR     27  12  54 E3        30.42F
KREMMLING      CLEAR     27  23  86 CALM      30.41S
LEADVILLE      CLEAR     27  17  66 NE3       30.49F
MONARCH PASS   CLEAR     36  12  38 S10       30.66F
SALIDA         CLEAR     34  22  62 W3        30.53F
SUNLIGHT       PTCLDY    37  21  52 CALM      30.49S
WILKERSON PASS NOT AVBL
$$

COZ069>075-310900-
...SAN LUIS VALLEY/SANGRE DE CRISTO MOUNTAINS...

CITY           SKY/WX    TMP DP  RH WIND       PRES   REMARKS
ALAMOSA        PTCLDY    31  17  56 S6        30.39S WCI  25
LA VETA PASS   CLEAR     34  21  60 CALM      30.50F
SAGUACHE       PTCLDY    32  18  55 NW10      30.41F WCI  24
$$

COZ035-036-038>040-310900-
...NORTHERN COLORADO FRONT RANGE...

CITY           SKY/WX    TMP DP  RH WIND       PRES   REMARKS
DENVER INTL AP CLEAR     38  26  62 S12       30.38F
DMNS CITY PARK   N/A     39  28  64 SE1       30.38S
AURORA         CLEAR     38  26  60 S9        30.39F
FRONT RANGE AP CLEAR     41  30  65 S14       30.39F
ERIE MUNI ARPT CLEAR     32  28  85 SW3       30.38F
BOULDER MUN AP CLEAR     39  32  75 CALM      30.37F
CENTENNIAL     CLEAR     43  25  49 S15       30.38F
BROOMFIELD     CLEAR     41  28  60 CALM      30.38F
FORT COLLINS   CLEAR     37  27  65 NE8       30.40F
LONGMONT       CLEAR     38  29  71 N3        30.40F
$$

COZ041-046-047-076>085-087-088-310900-
...PIKES PEAK/PALMER DIVIDE AND SOUTHERN FOOTHILLS...

CITY           SKY/WX    TMP DP  RH WIND       PRES   REMARKS
COLO. SPRINGS  CLEAR     40  24  53 E8        30.45S
A. F. ACADEMY  CLEAR     33  22  65 SE2       30.43F
ELLICOTT       CLEAR     39  24  55 SE10      30.43S
FALCON         CLEAR     34  23  64 S6        30.46S WCI  29
FORT CARSON    CLEAR     42  24  47 S1        30.43S
LIMON          CLEAR     29  24  82 CALM      30.44S
MONUMENT HILL  CLEAR     32  23  69 S12       30.41F WCI  23
TRINIDAD       PTCLDY    37  23  56 W7        30.42F
$$

COZ042>045-048>051-090-091-310900-
...NORTHEAST COLORADO...

CITY           SKY/WX    TMP DP  RH WIND       PRES   REMARKS
GREELEY ARPT   CLEAR     36  23  60 NE6       30.41F
AKRON          CLEAR     32  27  81 SE12      30.42F WCI  23
BURLINGTON     CLEAR     32  26  78 E7        30.45R WCI  26
WRAY           CLEAR     32  29  87 NE12      30.44F WCI  23
STERLING       NOT AVBL
HOLYOKE        CLEAR     34  30  86 E7        30.47S WCI  28
FORT MORGAN    CLEAR     32  28  83 E9        30.43S WCI  24
$$

COZ086-089-092>099-310900-
...SOUTHEAST COLORADO...

CITY           SKY/WX    TMP DP  RH WIND       PRES   REMARKS
PUEBLO         PTCLDY    39  24  55 VRB3      30.41F
LA JUNTA       CLEAR     39  25  57 E3        30.42R
LAMAR          CLEAR     35  25  66 CALM      30.41S
SPRINGFIELD      N/A     38  25  59 E5        30.43R
$$



USA.gov is the U.S. government's official web portal to all federal, state and local government web resources and services.